Temp
17 18 18 20 20 21 21 21 21 22 23 23 22 23 24 24 22 23 23 22 22 23 21 20 21 22 23 24 24 24 24 24 24 23 20 19 18 18 18 18 17 17 17 17
18 17 20 20 20 20 20 20 21 22 23 23 22 22 24 25 24 23 22 21 21 21 21 19 21 22 22 22 24 24 24 24 24 23 22 19 19 19 18 18 17 17 17 17
18 20 20 20 20 19 20 19 21 21 22 23 22 22 23 25 24 23 23 22 21 21 20 21 22 22 23 24 24 24 24 24 23 21 19 20 18 19 18 18 17 17 17 17
19 21 20 19 20 20 20 21 21 21 21 21 23 22 23 24 24 24 23 23 22 21 22 22 22 23 21 23 22 20 21 21 22 22 19 18 19 19 19 18 18 18 19 19
19 20 19 20 20 21 20 22 21 21 21 22 22 22 24 24 23 24 24 23 22 22 21 20 20 20 21 19 18 18 20 20 20 20 18 18 19 19 18 18 19 19 19 19
20 20 21 21 21 21 22 21 21 21 21 20 22 23 23 24 24 25 23 20 19 18 17 16 18 17 18 18 17 18 19 19 19 18 18 18 17 18 18 18 18 18 17 17
19 20 21 22 21 21 21 20 19 19 20 20 23 22 23 23 23 23 21 19 18 16 16 16 16 16 16 17 16 16 16 17 18 18 19 19 19 18 19 18 17 17 17 17
18 17 20 21 21 21 21 21 21 19 20 21 22 21 23 22 20 20 19 17 17 15 15 14 14 14 13 13 14 14 14 15 17 17 17 17 18 17 18 16 16 16 15 15
19 18 21 21 21 22 21 20 22 20 21 21 22 22 21 21 20 20 18 17 15 15 15 14 13 13 12 12 12 12 13 15 16 16 17 17 17 17 17 16 16 15 14 13
19 18 20 20 21 21 20 22 20 21 18 19 20 21 22 20 20 20 19 17 15 15 14 13 13 12 12 12 13 14 14 15 15 16 16 16 16 15 15 15 15 14 14 14
20 19 17 18 19 20 20 20 21 20 20 19 19 20 22 22 20 19 19 17 16 15 14 14 13 13 13 12 12 12 13 12 13 14 14 14 14 14 14 13 13 13 13 13
20 18 16 17 18 17 18 19 20 18 18 20 20 19 20 20 20 18 17 16 15 15 14 14 13 13 12 12 11 11 11 11 10 12 12 13 13 13 13 13 13 13 13 12
18 17 14 15 16 17 17 18 18 18 19 18 18 18 18 19 19 18 17 15 15 14 14 13 13 13 12 11 11 10 10 10 10 11 10 9 11 11 10 10 9 9 8 7
17 15 15 15 15 18 17 17 18 18 16 17 17 12 16 17 17 17 16 16 15 14 13 12 12 12 11 10 10 9 9 8 8 8 8 7 7 7 7 6 5 5 5 5
17 15 15 14 15 17 17 17 17 17 18 17 18 17 17 17 17 17 16 15 15 14 13 12 11 10 10 9 8 8 7 7 6 6 6 6 5 5 5 4 4 4 4 4
14 15 15 13 14 16 16 16 16 16 17 16 17 17 18 17 16 15 15 14 14 13 11 11 10 9 8 8 7 6 6 6 5 5 5 5 4 4 4 3 3 3 3 2
15 15 14 15 14 15 15 16 16 16 16 16 16 17 16 15 15 14 14 13 12 11 10 9 9 8 7 6 5 5 5 4 4 4 4 4 3 3 2 2 1 1 1 1
15 15 15 14 13 13 14 15 16 16 15 15 15 14 14 14 13 13 12 11 10 9 8 8 7 6 5 4 4 3 3 3 3 3 3 2 1 1 0 0 0 0 0 -0
15 14 12 12 14 13 13 14 15 15 13 15 14 14 13 13 13 11 9 8 8 7 6 6 5 4 3 3 2 1 1 2 2 2 1 0 -0 -0 0 0 0 0 -0 -0
13 14 12 13 11 13 14 13 13 15 10 13 13 13 12 13 15 10 8 7 6 6 5 4 3 3 2 2 0 -0 0 1 0 0 -0 -0 0 0 0 -0 -0 -0 -0 -0
11 12 10 12 11 12 12 11 11 12 9 11 11 10 10 11 9 7 7 6 5 4 3 2 2 1 1 -1 -1 -1 -0 -1 0 -1 -0 0 0 -0 -0 -0 0 0 0 0
10 9 9 11 10 10 12 12 11 10 10 10 9 8 8 7 7 6 5 4 3 2 1 0 -1 -1 -2 -1 -2 -2 -1 -1 -1 -1 -0 -1 -0 0 1 0 1 1 1 1
10 11 11 12 10 10 10 10 9 9 9 8 7 6 5 6 5 4 3 1 -0 -1 -2 -2 -2 -2 -2 -3 -2 -2 -2 -2 0 1 1 -1 0 1 1 1 1 1 1 1
11 12 12 12 9 9 7 7 8 7 6 6 5 4 4 4 3 1 -0 -1 -2 -2 -3 -3 -3 -3 -3 -3 -3 -3 -2 -0 1 1 1 0 1 1 1 1 2 2 2 2
11 12 12 9 7 6 7 6 5 5 5 5 4 3 3 2 0 -1 -2 -2 -3 -3 -3 -4 -4 -4 -4 -4 -3 -2 -1 -1 0 1 1 0 1 1 1 2 2 2 2 2
11 11 11 10 9 9 6 4 4 5 5 4 4 3 2 1 -1 -2 -3 -3 -4 -4 -4 -5 -4 -4 -4 -3 -3 -3 -2 -1 -0 1 1 1 1 0 1 2 2 3 3 3
Height
1460 1459 1456 1453 1457 1453 1448 1451 1449 1445 1444 1447 1447 1448 1446 1449 1458 1457 1458 1461 1462 1466 1468 1475 1481 1483 1482 1483 1484 1486 1489 1490 1491 1492 1494 1497 1498 1500 1503 1505 1506 1508 1510 1512
1456 1451 1448 1452 1453 1455 1456 1453 1447 1438 1435 1438 1442 1443 1438 1440 1441 1446 1452 1454 1456 1459 1464 1471 1480 1483 1477 1479 1482 1486 1489 1488 1488 1489 1491 1495 1497 1498 1499 1501 1503 1504 1506 1508
1441 1439 1446 1448 1450 1453 1451 1454 1444 1440 1435 1434 1438 1438 1434 1431 1436 1440 1444 1446 1445 1448 1459 1472 1475 1475 1473 1475 1481 1484 1485 1482 1483 1486 1488 1489 1493 1493 1494 1497 1499 1501 1503 1505
1439 1433 1438 1443 1443 1444 1445 1441 1444 1440 1443 1440 1430 1431 1423 1423 1428 1432 1436 1440 1439 1443 1455 1461 1466 1468 1470 1470 1473 1474 1476 1477 1478 1481 1484 1487 1491 1492 1493 1494 1496 1496 1500 1502
1432 1430 1434 1436 1435 1435 1437 1434 1439 1440 1438 1433 1430 1429 1404 1414 1423 1425 1430 1435 1439 1442 1447 1452 1457 1459 1461 1465 1470 1470 1471 1474 1476 1478 1482 1486 1488 1489 1489 1492 1492 1494 1496 1497
1421 1425 1426 1425 1428 1430 1430 1435 1436 1436 1435 1441 1426 1424 1413 1411 1414 1418 1431 1440 1443 1448 1450 1454 1457 1457 1459 1459 1462 1466 1468 1471 1473 1475 1477 1481 1483 1486 1488 1489 1490 1492 1494 1495
1422 1421 1421 1420 1425 1425 1429 1432 1439 1446 1440 1436 1414 1425 1414 1414 1420 1425 1435 1441 1447 1450 1451 1451 1453 1454 1458 1459 1461 1464 1465 1466 1469 1472 1474 1475 1478 1482 1484 1485 1487 1489 1491 1492
1419 1427 1416 1416 1418 1419 1423 1422 1421 1436 1427 1420 1418 1428 1412 1423 1431 1434 1438 1444 1449 1451 1453 1451 1454 1455 1458 1458 1461 1464 1465 1465 1468 1470 1472 1474 1477 1479 1482 1483 1483 1484 1485 1486
1408 1414 1407 1414 1415 1414 1413 1423 1410 1419 1414 1415 1409 1418 1424 1426 1432 1437 1442 1446 1450 1452 1455 1456 1458 1459 1457 1458 1459 1461 1462 1463 1466 1469 1471 1473 1476 1477 1477 1477 1477 1478 1478 1477
1400 1411 1406 1410 1415 1412 1414 1408 1423 1417 1432 1430 1417 1416 1413 1426 1432 1438 1442 1447 1451 1454 1458 1457 1459 1459 1461 1462 1461 1462 1464 1466 1467 1470 1472 1472 1474 1473 1473 1472 1472 1473 1471 1469
1395 1400 1416 1413 1413 1411 1416 1414 1411 1411 1412 1425 1426 1423 1406 1418 1429 1437 1442 1447 1450 1454 1458 1459 1459 1459 1461 1462 1461 1464 1464 1465 1467 1470 1471 1470 1470 1469 1468 1467 1467 1465 1461 1461
1392 1401 1417 1413 1414 1418 1415 1412 1405 1420 1423 1418 1415 1423 1423 1425 1434 1440 1444 1449 1452 1454 1459 1462 1461 1462 1463 1464 1467 1469 1468 1467 1467 1466 1467 1465 1466 1463 1462 1460 1458 1456 1453 1452
1396 1404 1424 1423 1421 1417 1416 1417 1417 1417 1416 1422 1424 1428 1431 1434 1438 1442 1447 1452 1455 1458 1461 1461 1462 1463 1464 1465 1464 1465 1465 1464 1463 1463 1463 1462 1458 1456 1455 1451 1450 1445 1443 1442
1393 1409 1410 1412 1416 1406 1416 1417 1418 1420 1433 1430 1429 1452 1441 1441 1441 1446 1450 1453 1456 1460 1463 1465 1466 1466 1465 1465 1465 1465 1465 1463 1461 1460 1458 1456 1454 1450 1445 1442 1440 1437 1436 1433
1394 1403 1407 1418 1416 1409 1409 1415 1418 1419 1419 1426 1420 1428 1431 1437 1440 1446 1451 1455 1458 1461 1464 1466 1468 1466 1466 1466 1466 1464 1462 1459 1456 1454 1451 1449 1445 1442 1438 1436 1434 1431 1426 1423
1398 1403 1406 1421 1420 1415 1415 1416 1418 1421 1423 1427 1428 1432 1430 1438 1443 1449 1452 1455 1456 1459 1462 1464 1463 1461 1461 1461 1460 1457 1455 1452 1450 1447 1444 1441 1438 1436 1435 1430 1426 1421 1416 1412
1395 1402 1407 1409 1417 1418 1419 1412 1416 1420 1425 1427 1429 1429 1435 1443 1445 1450 1453 1456 1459 1463 1465 1465 1464 1462 1460 1457 1456 1453 1449 1446 1444 1443 1440 1437 1433 1429 1424 1419 1414 1410 1406 1403
1395 1400 1403 1409 1419 1422 1420 1417 1418 1419 1428 1430 1434 1439 1441 1445 1450 1452 1455 1458 1461 1461 1461 1459 1458 1457 1455 1453 1450 1446 1442 1439 1437 1434 1431 1428 1423 1418 1414 1410 1407 1403 1400 1395
1396 1401 1414 1419 1415 1420 1423 1421 1421 1419 1433 1433 1435 1440 1444 1447 1448 1455 1459 1461 1461 1460 1458 1456 1454 1451 1447 1445 1441 1437 1434 1432 1430 1427 1424 1420 1417 1413 1409 1405 1401 1397 1392 1387
1407 1406 1416 1417 1424 1420 1417 1427 1429 1426 1442 1440 1440 1443 1446 1445 1436 1457 1458 1457 1457 1455 1453 1450 1448 1444 1442 1439 1434 1431 1429 1427 1425 1423 1419 1417 1414 1410 1405 1400 1395 1391 1386 1380
1411 1415 1422 1417 1423 1422 1429 1432 1431 1429 1448 1443 1445 1448 1449 1449 1455 1456 1455 1454 1453 1451 1448 1445 1442 1439 1436 1432 1430 1428 1426 1423 1420 1418 1416 1413 1409 1404 1399 1393 1389 1384 1378 1373
1416 1423 1425 1421 1427 1432 1431 1432 1432 1442 1444 1447 1450 1452 1453 1454 1454 1455 1454 1452 1449 1447 1443 1441 1438 1435 1432 1429 1426 1423 1420 1418 1417 1414 1410 1406 1402 1398 1395 1389 1384 1379 1373 1367
1416 1417 1419 1419 1426 1432 1434 1437 1441 1444 1448 1452 1454 1456 1455 1455 1454 1453 1451 1449 1446 1443 1440 1437 1434 1430 1429 1425 1421 1418 1416 1415 1412 1409 1406 1401 1399 1396 1391 1385 1379 1373 1367 1362
1414 1416 1415 1419 1433 1437 1441 1444 1447 1450 1453 1455 1457 1457 1457 1457 1456 1453 1450 1446 1443 1441 1437 1434 1431 1427 1423 1420 1417 1416 1414 1411 1408 1405 1401 1398 1395 1392 1387 1381 1375 1370 1362 1357
1418 1418 1418 1429 1439 1442 1446 1449 1452 1454 1455 1457 1458 1458 1458 1458 1456 1453 1449 1445 1442 1438 1435 1431 1427 1423 1419 1417 1415 1412 1410 1407 1404 1402 1398 1395 1392 1388 1383 1376 1369 1364 1358 1354
1419 1419 1420 1425 1432 1434 1446 1452 1454 1456 1457 1459 1459 1459 1459 1458 1456 1452 1448 1444 1440 1436 1432 1427 1423 1420 1417 1414 1412 1409 1407 1404 1401 1398 1395 1392 1388 1385 1380 1372 1365 1360 1355 1350
Wind_Speed
22 13 18 19 21 16 9 11 15 16 16 22 25 28 25 25 26 25 28 38 41 50 52 33 31 36 32 21 21 22 21 22 24 22 20 19 20 18 18 19 18 17 16 16
14 20 17 15 18 17 15 16 14 11 13 18 22 24 24 25 25 28 23 28 39 45 50 30 26 24 32 24 21 24 22 27 25 22 20 15 16 15 15 15 16 17 17 17
17 12 18 17 18 19 17 18 14 11 4 11 17 23 20 21 21 23 24 22 27 40 42 27 27 29 24 27 18 25 36 36 28 21 20 21 15 15 15 14 14 15 16 17
21 15 17 20 21 21 18 16 17 15 10 13 19 13 19 17 19 18 23 23 15 30 31 25 32 33 29 34 27 27 32 29 25 25 18 17 13 12 12 13 13 14 15 16
18 18 17 23 19 19 16 13 14 15 16 17 15 11 12 17 14 19 16 15 23 16 18 25 27 32 27 14 18 21 22 20 20 17 14 12 12 10 8 10 12 14 16 16
17 12 17 16 15 16 16 18 13 16 15 15 18 13 10 14 15 15 12 9 8 12 11 10 18 10 13 15 14 14 13 12 11 12 14 14 10 9 8 8 9 10 13 15
18 16 14 11 12 10 13 13 9 10 13 14 18 12 6 11 9 7 12 15 13 12 12 12 10 9 7 7 6 7 10 14 15 15 15 15 14 14 11 11 8 13 15 17
16 17 21 14 16 12 18 16 11 14 13 15 8 8 5 8 10 12 16 17 16 17 16 17 15 14 12 13 12 11 10 11 13 13 13 13 13 11 14 13 18 18 17 19
17 18 18 19 15 18 13 11 13 9 5 7 12 7 6 9 11 13 15 17 17 18 18 20 18 17 17 15 14 11 8 8 7 9 11 14 18 20 22 24 26 24 26 23
10 13 12 16 14 13 13 14 9 9 11 13 7 14 7 15 12 11 13 16 17 17 16 17 16 16 15 13 10 8 6 2 3 7 11 15 19 21 23 25 28 30 32 34
11 6 7 11 14 17 11 12 11 5 8 10 10 8 9 12 11 10 11 14 15 14 14 13 13 13 12 11 10 7 5 6 7 10 14 17 19 22 25 27 28 30 32 34
16 10 11 13 4 3 3 7 14 8 12 8 10 3 0 9 10 13 14 13 12 12 11 10 10 10 9 9 8 7 8 8 9 13 17 20 24 25 28 30 33 34 36 36
11 5 9 8 11 8 9 5 2 4 6 12 12 3 6 10 11 13 13 12 11 9 7 7 7 8 8 8 10 11 12 13 16 19 19 22 26 28 29 30 32 32 32 31
16 6 7 6 5 13 15 13 11 9 7 10 11 12 12 10 9 9 9 8 8 5 4 4 4 6 8 10 12 14 14 15 17 19 21 23 24 25 27 28 26 25 24 25
8 12 15 8 3 4 7 10 10 10 7 7 3 6 14 13 11 8 6 5 5 3 1 3 5 7 9 11 12 13 15 17 19 21 22 23 23 23 23 23 23 23 23 24
1 8 13 10 6 4 5 6 7 6 5 6 4 5 2 5 3 8 6 4 3 1 5 7 10 13 14 15 16 18 19 20 20 22 24 24 23 22 22 23 22 23 23 24
6 9 12 9 5 4 7 11 12 9 6 7 9 2 9 5 5 5 4 2 1 0 5 9 12 13 15 16 17 21 22 21 22 22 21 21 21 22 21 22 23 24 24 24
10 9 3 5 7 7 7 1 1 8 3 5 3 7 6 7 6 3 5 6 4 9 13 14 15 16 16 17 19 19 20 20 20 20 20 20 20 22 23 23 24 25 24 28
5 5 3 4 7 5 5 6 8 9 9 3 9 7 6 4 7 11 6 8 9 12 14 14 15 18 19 19 20 20 20 19 18 18 19 20 21 22 22 23 24 24 25 26
8 5 3 6 4 5 10 6 2 3 6 5 3 5 5 6 4 6 11 13 13 13 14 17 18 19 19 18 19 18 18 17 16 16 19 19 21 21 23 24 24 25 26 29
6 5 5 5 2 4 5 2 0 5 4 7 7 8 9 7 8 14 15 15 15 15 17 18 18 18 17 18 17 17 16 16 16 17 18 20 21 22 23 25 25 26 28 26
6 6 3 4 3 3 5 5 1 8 11 9 9 9 9 10 12 14 15 16 17 18 18 17 17 17 17 15 16 16 16 14 16 18 20 21 21 23 22 24 23 25 25 24
5 1 5 1 4 11 12 15 11 10 11 10 8 9 10 11 14 16 17 17 17 18 17 17 17 17 14 15 15 15 13 15 18 20 20 20 20 19 21 22 25 27 26 26
4 4 4 7 10 13 16 16 15 14 13 10 9 9 11 13 15 16 16 17 17 16 17 16 16 16 17 14 13 12 14 16 17 18 19 19 19 20 22 23 23 24 31 26
1 6 7 14 14 16 13 14 14 14 12 11 9 9 10 12 15 15 14 15 15 16 16 16 17 17 15 14 14 13 14 16 17 17 18 19 16 18 23 29 24 24 22 22
5 5 5 3 19 8 16 14 13 12 12 10 10 9 9 11 14 15 14 14 15 16 17 18 16 15 16 15 14 13 14 15 15 16 17 18 16 18 25 29 28 20 15 16
Wind_Direction
186 198 203 201 214 231 282 247 231 240 240 235 231 237 223 222 221 238 231 235 230 225 242 259 285 294 280 271 264 241 235 231 227 226 224 221 225 223 221 220 217 217 214 220
181 216 207 216 206 225 246 259 243 263 238 233 230 240 236 229 225 230 237 241 236 233 230 256 284 262 269 281 266 242 230 237 234 227 224 217 217 217 214 217 220 220 220 223
199 202 212 208 209 221 222 251 246 265 309 204 228 234 233 227 220 222 229 245 241 226 220 243 252 247 281 289 251 233 232 230 225 215 210 215 201 205 206 208 215 223 219 221
221 210 198 209 216 213 230 220 252 262 255 224 209 235 208 210 213 218 221 232 223 202 215 234 259 251 262 274 246 232 225 223 218 221 218 217 213 218 215 216 207 219 222 235
206 210 204 206 212 218 241 228 237 255 253 262 217 259 213 181 207 209 218 229 229 219 238 268 264 263 257 231 211 213 218 219 218 222 219 232 225 219 205 196 220 230 243 245
229 208 207 214 215 227 239 231 245 249 250 240 248 236 179 171 205 165 136 136 153 178 184 203 224 215 208 214 210 214 215 220 207 190 187 183 189 194 204 225 235 241 244 251
215 199 212 218 209 208 200 201 203 210 223 238 221 219 248 75 87 116 121 112 119 121 124 119 109 106 122 143 160 164 172 184 184 187 193 201 209 216 228 244 253 244 249 254
202 211 207 190 227 191 203 216 236 207 209 214 164 227 226 98 107 111 106 107 108 104 102 98 100 102 102 103 112 125 131 155 180 193 204 215 227 238 246 261 252 255 258 258
204 218 193 219 214 240 189 223 258 272 269 273 169 150 132 120 124 123 116 110 102 97 99 100 99 98 92 91 91 96 120 167 190 216 228 238 247 253 256 261 266 271 263 269
211 207 183 194 231 227 265 212 198 230 237 235 181 176 214 165 150 139 126 114 108 104 98 93 89 85 85 81 83 90 81 108 239 260 260 263 265 273 277 276 276 275 274 274
194 199 195 164 202 210 198 221 239 275 260 225 228 232 101 153 145 138 120 114 108 104 98 89 81 74 67 61 56 44 27 5 320 293 288 288 289 288 287 284 282 281 281 280
205 224 184 215 82 299 322 267 227 219 221 248 271 126 67 124 135 140 124 114 107 100 95 87 77 70 60 48 35 15 348 340 324 308 300 295 290 288 286 285 285 282 280 278
169 181 180 179 195 202 224 213 274 311 308 219 224 180 130 131 139 133 128 124 118 109 88 64 49 36 25 10 359 344 335 324 313 306 303 297 295 293 290 289 286 285 283 280
150 170 217 229 297 184 197 199 200 212 222 248 252 141 171 173 146 137 136 140 138 128 95 53 25 10 0 347 335 326 319 315 311 304 300 297 294 292 291 289 287 286 282 281
164 193 193 156 204 172 177 179 185 210 225 227 161 213 170 177 176 171 175 177 175 169 134 359 344 340 333 322 314 311 306 309 307 303 300 298 296 294 294 291 287 287 286 285
145 142 158 158 210 229 214 202 203 212 195 239 202 222 215 107 198 172 185 205 234 294 343 336 332 330 324 318 314 311 313 310 308 304 303 302 300 294 290 290 291 291 290 289
137 148 176 162 176 193 236 227 218 221 212 243 238 24 116 154 180 162 170 196 131 225 321 318 315 314 312 312 310 309 307 307 304 301 300 300 299 298 298 297 298 297 294 291
146 151 145 127 168 216 53 163 230 201 180 186 112 97 96 108 129 142 88 76 8 332 323 320 316 313 310 307 308 306 308 308 307 307 307 306 305 305 306 306 303 297 293 292
145 123 128 169 197 84 141 116 147 155 132 100 122 117 102 112 174 129 88 11 339 325 318 314 312 310 310 312 311 312 313 313 313 310 310 313 314 312 308 305 302 301 297 299
107 101 118 157 182 196 112 118 22 255 121 119 111 76 28 331 259 111 346 341 331 325 318 315 312 312 312 311 313 314 313 313 309 311 316 316 315 310 306 304 303 304 295 301
140 144 171 145 155 107 113 103 279 215 105 102 81 52 32 18 0 329 331 329 326 323 320 317 316 315 311 313 314 310 309 306 316 317 314 313 312 310 307 306 303 305 304 303
156 148 165 184 174 162 153 169 296 106 104 91 68 40 17 355 341 336 332 329 327 324 324 321 318 314 316 316 311 307 309 320 314 314 319 320 319 320 314 311 306 309 311 307
157 129 158 156 92 97 85 90 101 107 100 75 61 35 19 3 349 339 333 331 328 326 323 322 320 318 318 311 313 316 323 312 317 322 327 320 316 319 320 318 317 320 319 309
121 150 122 142 118 105 98 96 97 99 93 81 64 48 33 15 359 344 335 333 330 329 327 326 325 322 322 332 328 318 311 314 316 327 332 328 317 320 326 329 322 313 324 318
18 160 132 94 108 106 111 108 109 102 92 79 65 55 41 23 7 350 339 337 334 331 334 331 330 332 334 329 328 322 315 316 330 334 336 334 325 322 329 340 341 330 328 316
159 160 171 184 164 142 136 128 120 107 92 84 66 56 38 24 10 2 354 346 343 340 341 346 344 344 340 339 337 329 324 327 330 330 338 339 330 330 342 350 349 356 346 343